Regional Weather Roundup
Issued by NWS Upton, NY

Current Version | Previous Version | Text Only | Print | Product List | Glossary Off
Versions: 1 2 3 4 5 6 7 8 9 10 11 12 13 14 15 16 17 18 19 20 21 22 23 24 25 26 27
000 ASUS41 KOKX 301508 RWROKX REGIONAL WEATHER ROUNDUP NATIONAL WEATHER SERVICE NEW YORK NY 1100 AM EDT SUN APR 30 2017 NOTE: "FAIR" INDICATES FEW OR NO CLOUDS BELOW 12,000 FEET WITH NO SIGNIFICANT WEATHER AND/OR OBSTRUCTIONS TO VISIBILITY. NYZ071-072-176-178-NJZ106-104-301600- NEW YORK CITY METRO AREA CITY SKY/WX TMP DP RH WIND PRES REMARKS Central Park CLOUDY 61 40 45 E8 30.25F Wall St Helipt CLOUDY 61 45 55 NE8 30.23F Bronx Bot Gard N/A 57 36 44 SE2 30.26F LaGuardia APRT CLOUDY 60 42 51 NE14 30.23F Kennedy INTL CLOUDY 63 42 46 E12 30.24F Breezy Point N/A 57 N/A N/A E6 N/A Newark/Liberty CLOUDY 63 39 41 VRB6 30.22F Teterboro CLOUDY 59 40 49 E7 30.22F $$ NYZ177-179-078>081-301600- LONG ISLAND NEW YORK CITY SKY/WX TMP DP RH WIND PRES REMARKS Jones Beach N/A 57 N/A N/A E12 N/A Matinecock PT N/A 54 N/A N/A E14 N/A Farmingdale CLOUDY 62 41 46 E13 30.23F MacArthur/ISP CLOUDY 64 42 44 E15G21 30.24S Shirley NOT AVBL Mt Sinai Harb N/A 57 N/A N/A NE1 N/A Westhampton PTSUNNY 56 43 61 E14G22 30.28S East Hampton CLOUDY 53 42 67 E15G22 30.26F Montauk N/A 55 41 59 E9G21 30.28S $$ NYZ052-065-067-301600- HUDSON VALLEY CITY SKY/WX TMP DP RH WIND PRES REMARKS White Plains PTSUNNY 58 38 47 E10 30.23F Larchmont Harb N/A 54 N/A N/A NE15 N/A Croton O-T Hud N/A 57 N/A N/A W1 N/A Newburgh PTSUNNY 57 39 51 E6 30.25F Montgomery LGT RAIN 57 37 47 VRB6 30.23S Poughkeepsie CLOUDY 56 36 47 W5 30.23F Albany CLOUDY 49 29 46 N8 30.29R $$ NJZ001-105-106-008-010-013-015-019>022-104-301600- NEW JERSEY CITY SKY/WX TMP DP RH WIND PRES REMARKS Newark/Liberty CLOUDY 63 39 41 VRB6 30.22F Teterboro CLOUDY 59 40 49 E7 30.22F Caldwell CLOUDY 60 40 47 SE10 30.24S Somerville CLOUDY 65 44 46 SE6 30.19F Linden CLOUDY 63 37 38 E6 30.24F Perth Amboy N/A 57 N/A N/A E12 N/A Sussex CLOUDY 57 41 55 N7 30.23S Andover N/A 60 37 42 VRB3 30.22S Trenton CLOUDY 65 46 50 E13 30.19F Millville PTSUNNY 70 52 52 E17G26 30.18F Atlantic City CLOUDY 63 42 46 E17 30.23R Wrightstown CLOUDY 65 40 40 E13 30.19S Toms River CLOUDY 61 41 47 E12 30.25R Belmar CLOUDY 60 41 49 E10G20 30.24S $$ PAZ047>061-062-071-301600- EASTERN PENNSYLVANIA CITY SKY/WX TMP DP RH WIND PRES REMARKS Philadelphia CLOUDY 69 49 48 E13 30.19F Allentown CLOUDY 66 47 50 E8 30.20R Scranton CLOUDY 60 41 49 VRB3 30.17F $$ CTZ002-004>006-009-010-012-RIZ004-006-007-MAZ004-011-015-301600- SOUTHERN NEW ENGLAND IN CT CITY SKY/WX TMP DP RH WIND PRES REMARKS Bradley INTL PTSUNNY 59 33 37 N7 30.27R Hartford PTSUNNY 60 36 40 VRB5 30.25F Danbury CLOUDY 58 40 51 E9 30.24F Wtrbury/Oxford CLOUDY 57 36 44 SE8 30.25F Bridgeport CLOUDY 60 40 47 E9 30.23F Meriden CLOUDY 62 39 42 CALM 30.23F New Haven CLOUDY 61 39 44 SE9 30.24F Chester PTSUNNY 57 41 54 SE8 30.25R Groton PTSUNNY 55 42 61 SE18G29 30.25S Wilimantic PTSUNNY 65 34 31 VRB5 30.24F IN RI CITY SKY/WX TMP DP RH WIND PRES REMARKS Providence MOSUNNY 60 35 39 SE7 30.27F Block Island PTSUNNY 53 40 61 E15G22 30.28S Westerly MOSUNNY 56 42 59 E17 30.26F IN MA CITY SKY/WX TMP DP RH WIND PRES REMARKS Boston PTSUNNY 49 34 56 E16 30.31R Worcester SUNNY 52 27 38 VRB5 30.25F Westfield CLOUDY 57 32 38 SE5 30.26F Provincetown SUNNY 49 33 54 NE14 30.32R Nantucket MOSUNNY 52 34 50 NE17 30.29S $$ ANZ330-335-338-340-345-350-353-355-301600- COASTAL MARINE OBSERVATIONS STATION/POSITION TIME SKY/WX TEMP WIND PRES VSBY WAVE AIR SEA DIR/SP/G HT/PER (UTC) (F) (DEG/KT/KT) (MB) (MI) (FT/S) NY HARB ENTRANCE 1350 53 50 70/ 8/ 10 1024.1 3/ 7 20 S FIRE ISLAND 1450 53 50 80/ 14/ 19 1023.4 3/ 7 GREAT SOUTH BAY 1430 60 61 90/ 14/ 16 N/A 23 SSW MONTAUK P 1350 50 48 1025.1 3/ 6 15 E BARNEGAT LI 1430 54 N/A 3/ 7 HUDSON CANYON 1350 54 50 70/ 16/ 19 1023.5 3/ 7 KINGS POINT 1448 59 53 60/ 5/ 8 1023.7 EXECUTION ROCKS NOT AVBL CENTRAL LI SOUND NOT AVBL EASTERN LI SOUND NOT AVBL ROBBINS REEF 1448 61 110/ 6/ 8 1023.9 $$ >>>>>>>>>>>>>>>>>>>>>>>>>>>> KEY <<<<<<<<<<<<<<<<<<<<<<<<<<< > < > SKY/WX - Sky Condition/Present Weather < > TMP - Temperature in Fahrenheit < > DP - Dew Point in Fahrenheit < > RH - Relative Humidity in Percent < > WIND - Direction (from) and Speed in MPH < > PRES - Mean Sea Level Pressure (inches of Hg) < > WCI - Wind Chill Index < > VSB - VISIBILITY IN MILES < > HX - HEAT INDEX < > TC - TEMPERATURE IN CELSIUS < > VRB - VARIABLE WIND DIRECTION < > < >>>>>>>>>>>>>>>>>>>>>>>>>>>> KEY <<<<<<<<<<<<<<<<<<<<<<<<<<<

USA.gov is the U.S. government's official web portal to all federal, state and local government web resources and services.